QPF
0.01 0.02 0.06 0.06 0.05 0.06 0.05 0.04 0.04 0.05 0.05 0.04 0.04 0.03 0.02 0.01 0.01 0.01 0.02 0.01 0.02 0.02 0.01 0.01 0.01 0.01 0.00 0.00 0.00 0.00 0.00 0.00 0.00 0.00 0.00 0.00 0.00 0.01 0.02 0.04 0.03 0.06 0.05
0.01 0.02 0.07 0.09 0.08 0.07 0.06 0.05 0.04 0.04 0.04 0.04 0.04 0.03 0.02 0.01 0.01 0.01 0.01 0.01 0.02 0.02 0.02 0.01 0.00 0.01 0.00 0.00 0.00 0.00 0.00 0.00 0.01 0.01 0.00 0.00 0.00 0.01 0.02 0.02 0.03 0.06 0.06
0.02 0.03 0.05 0.08 0.09 0.09 0.08 0.09 0.08 0.07 0.05 0.05 0.04 0.04 0.04 0.03 0.02 0.02 0.02 0.02 0.02 0.02 0.02 0.02 0.01 0.00 0.00 0.00 0.00 0.00 0.00 0.01 0.01 0.00 0.00 0.01 0.01 0.01 0.01 0.02 0.03 0.04 0.06
0.02 0.04 0.06 0.10 0.11 0.10 0.09 0.10 0.11 0.10 0.09 0.07 0.05 0.04 0.04 0.04 0.02 0.02 0.01 0.01 0.01 0.01 0.02 0.01 0.01 0.00 0.00 0.00 0.00 0.01 0.01 0.01 0.01 0.00 0.01 0.01 0.03 0.01 0.01 0.02 0.03 0.03 0.04
0.03 0.05 0.08 0.13 0.12 0.12 0.10 0.10 0.11 0.12 0.12 0.10 0.08 0.06 0.04 0.03 0.02 0.02 0.01 0.01 0.01 0.02 0.02 0.01 0.01 0.01 0.00 0.00 0.00 0.01 0.01 0.02 0.01 0.01 0.02 0.02 0.04 0.02 0.01 0.01 0.02 0.03 0.05
0.04 0.05 0.08 0.12 0.13 0.13 0.14 0.13 0.11 0.10 0.10 0.09 0.09 0.07 0.06 0.04 0.02 0.02 0.01 0.02 0.02 0.02 0.01 0.01 0.01 0.01 0.00 0.00 0.01 0.01 0.02 0.02 0.03 0.03 0.02 0.02 0.03 0.01 0.01 0.02 0.03 0.04 0.06
0.06 0.06 0.08 0.11 0.12 0.11 0.12 0.13 0.13 0.12 0.10 0.09 0.09 0.09 0.08 0.05 0.03 0.02 0.03 0.03 0.04 0.03 0.02 0.02 0.01 0.02 0.01 0.00 0.00 0.01 0.02 0.03 0.03 0.03 0.03 0.02 0.02 0.01 0.01 0.03 0.03 0.04 0.08
0.10 0.10 0.10 0.12 0.12 0.12 0.12 0.11 0.12 0.13 0.13 0.12 0.10 0.10 0.10 0.08 0.06 0.05 0.05 0.05 0.05 0.04 0.03 0.02 0.02 0.02 0.01 0.00 0.00 0.01 0.01 0.02 0.02 0.02 0.02 0.02 0.01 0.01 0.01 0.03 0.04 0.04 0.06
0.10 0.11 0.12 0.12 0.12 0.12 0.12 0.12 0.13 0.14 0.16 0.15 0.13 0.11 0.10 0.09 0.08 0.07 0.08 0.08 0.07 0.06 0.05 0.03 0.02 0.01 0.01 0.01 0.00 0.00 0.01 0.01 0.03 0.03 0.01 0.02 0.01 0.01 0.01 0.02 0.04 0.05 0.04
0.07 0.07 0.07 0.10 0.11 0.11 0.12 0.13 0.14 0.15 0.16 0.16 0.14 0.13 0.14 0.11 0.09 0.09 0.10 0.10 0.09 0.08 0.08 0.06 0.03 0.01 0.01 0.01 0.00 0.00 0.00 0.02 0.05 0.03 0.02 0.02 0.02 0.02 0.02 0.03 0.05 0.06 0.04
0.04 0.05 0.05 0.06 0.07 0.09 0.11 0.13 0.13 0.12 0.13 0.14 0.14 0.15 0.16 0.13 0.10 0.09 0.07 0.09 0.10 0.11 0.11 0.09 0.06 0.03 0.01 0.01 0.01 0.01 0.01 0.03 0.04 0.03 0.02 0.02 0.03 0.03 0.03 0.04 0.05 0.05 0.04
0.06 0.06 0.06 0.06 0.07 0.08 0.10 0.14 0.14 0.12 0.10 0.11 0.11 0.11 0.12 0.14 0.14 0.10 0.08 0.08 0.09 0.12 0.13 0.13 0.11 0.06 0.03 0.02 0.01 0.00 0.00 0.01 0.02 0.02 0.01 0.02 0.04 0.04 0.04 0.04 0.04 0.05 0.04
0.04 0.05 0.05 0.06 0.07 0.07 0.08 0.09 0.10 0.10 0.09 0.11 0.12 0.11 0.13 0.15 0.16 0.14 0.12 0.10 0.09 0.10 0.12 0.12 0.12 0.08 0.05 0.02 0.01 0.00 0.00 0.00 0.01 0.02 0.01 0.02 0.03 0.04 0.06 0.05 0.05 0.05 0.04
0.01 0.02 0.02 0.02 0.03 0.03 0.03 0.03 0.05 0.07 0.07 0.08 0.10 0.10 0.11 0.16 0.19 0.17 0.13 0.12 0.13 0.14 0.15 0.16 0.15 0.11 0.08 0.04 0.01 0.01 0.00 0.00 0.00 0.01 0.02 0.02 0.03 0.03 0.06 0.07 0.06 0.05 0.05
0.01 0.01 0.00 0.00 0.00 0.00 0.01 0.01 0.01 0.02 0.04 0.05 0.07 0.08 0.08 0.10 0.14 0.15 0.14 0.12 0.12 0.13 0.14 0.16 0.14 0.11 0.10 0.05 0.02 0.01 0.00 0.00 0.00 0.00 0.01 0.01 0.02 0.03 0.05 0.07 0.07 0.05 0.06
0.00 0.00 0.00 0.00 0.00 0.00 0.00 0.00 0.00 0.01 0.01 0.01 0.04 0.06 0.06 0.05 0.06 0.10 0.11 0.12 0.12 0.12 0.12 0.13 0.13 0.14 0.13 0.08 0.03 0.01 0.01 0.00 0.00 0.00 0.01 0.01 0.01 0.01 0.03 0.06 0.07 0.07 0.05
0.00 0.00 0.00 0.00 0.00 0.00 0.00 0.00 0.00 0.00 0.00 0.00 0.01 0.03 0.04 0.04 0.04 0.05 0.07 0.09 0.09 0.11 0.13 0.15 0.14 0.13 0.11 0.09 0.05 0.03 0.02 0.01 0.00 0.00 0.01 0.02 0.02 0.01 0.02 0.04 0.07 0.08 0.06
0.00 0.00 0.00 0.00 0.00 0.00 0.00 0.00 0.00 0.00 0.01 0.01 0.01 0.01 0.03 0.04 0.04 0.04 0.05 0.05 0.08 0.10 0.13 0.16 0.16 0.16 0.14 0.12 0.09 0.06 0.03 0.02 0.00 0.00 0.01 0.02 0.02 0.01 0.02 0.03 0.05 0.06 0.09
0.00 0.00 0.00 0.00 0.00 0.00 0.00 0.00 0.00 0.00 0.01 0.01 0.02 0.02 0.04 0.04 0.04 0.03 0.04 0.06 0.08 0.10 0.10 0.12 0.15 0.16 0.18 0.16 0.14 0.08 0.05 0.03 0.02 0.01 0.02 0.02 0.02 0.03 0.02 0.02 0.03 0.04 0.07
0.00 0.00 0.00 0.00 0.00 0.00 0.00 0.00 0.00 0.00 0.00 0.01 0.01 0.01 0.01 0.02 0.02 0.02 0.03 0.03 0.04 0.07 0.09 0.10 0.13 0.16 0.16 0.18 0.15 0.10 0.06 0.05 0.03 0.02 0.03 0.04 0.05 0.02 0.01 0.02 0.05 0.03 0.03
0.00 0.00 0.00 0.00 0.00 0.00 0.00 0.00 0.00 0.01 0.01 0.01 0.01 0.01 0.01 0.01 0.02 0.02 0.03 0.02 0.03 0.05 0.07 0.10 0.13 0.15 0.16 0.18 0.19 0.15 0.09 0.06 0.05 0.04 0.05 0.05 0.05 0.03 0.02 0.02 0.06 0.06 0.03
0.00 0.00 0.00 0.00 0.00 0.00 0.00 0.00 0.00 0.01 0.01 0.02 0.01 0.01 0.01 0.01 0.02 0.02 0.03 0.03 0.03 0.05 0.06 0.07 0.11 0.13 0.14 0.16 0.21 0.22 0.17 0.13 0.08 0.04 0.04 0.05 0.05 0.04 0.02 0.01 0.02 0.04 0.04
0.00 0.00 0.00 0.00 0.00 0.00 0.00 0.00 0.01 0.01 0.01 0.01 0.01 0.01 0.01 0.01 0.01 0.01 0.02 0.03 0.04 0.05 0.06 0.07 0.09 0.11 0.13 0.14 0.19 0.25 0.23 0.19 0.15 0.10 0.07 0.07 0.07 0.06 0.04 0.02 0.01 0.01 0.02
0.00 0.00 0.00 0.00 0.00 0.00 0.00 0.01 0.01 0.01 0.01 0.01 0.02 0.02 0.01 0.01 0.01 0.02 0.02 0.02 0.03 0.04 0.06 0.07 0.08 0.10 0.12 0.12 0.14 0.16 0.18 0.19 0.20 0.17 0.12 0.09 0.09 0.08 0.06 0.04 0.03 0.03 0.02
0.00 0.00 0.00 0.00 0.01 0.00 0.00 0.01 0.01 0.01 0.02 0.02 0.03 0.04 0.03 0.03 0.02 0.02 0.02 0.02 0.03 0.03 0.04 0.05 0.07 0.08 0.10 0.12 0.12 0.12 0.11 0.12 0.13 0.17 0.19 0.18 0.15 0.11 0.08 0.07 0.06 0.06 0.05
0.00 0.00 0.00 0.00 0.01 0.01 0.01 0.01 0.02 0.02 0.02 0.03 0.03 0.04 0.04 0.04 0.02 0.02 0.02 0.02 0.03 0.04 0.03 0.05 0.07 0.07 0.09 0.11 0.14 0.14 0.12 0.10 0.10 0.11 0.14 0.19 0.21 0.17 0.12 0.09 0.07 0.07 0.06
MSLP
1015.53 1015.17 1014.97 1014.96 1015.08 1015.26 1015.43 1015.51 1015.47 1015.32 1015.12 1014.93 1014.83 1014.84 1014.99 1015.24 1015.54 1015.83 1016.04 1016.14 1016.14 1016.04 1015.91 1015.77 1015.65 1015.56 1015.51 1015.46 1015.40 1015.32 1015.20 1015.06 1014.92 1014.79 1014.70 1014.63 1014.59 1014.57 1014.55 1014.53 1014.50 1014.47 1014.45
1015.57 1015.21 1015.02 1015.02 1015.15 1015.34 1015.52 1015.62 1015.60 1015.49 1015.31 1015.14 1015.04 1015.06 1015.19 1015.42 1015.68 1015.92 1016.09 1016.16 1016.14 1016.05 1015.94 1015.82 1015.74 1015.69 1015.65 1015.61 1015.54 1015.43 1015.27 1015.10 1014.93 1014.79 1014.69 1014.64 1014.63 1014.64 1014.65 1014.66 1014.64 1014.62 1014.60
1015.60 1015.27 1015.10 1015.10 1015.25 1015.45 1015.64 1015.75 1015.76 1015.66 1015.51 1015.36 1015.27 1015.27 1015.37 1015.55 1015.75 1015.92 1016.03 1016.07 1016.03 1015.95 1015.86 1015.80 1015.77 1015.77 1015.77 1015.74 1015.66 1015.53 1015.34 1015.12 1014.92 1014.76 1014.66 1014.62 1014.63 1014.67 1014.72 1014.75 1014.77 1014.76 1014.75
1015.66 1015.37 1015.23 1015.25 1015.40 1015.60 1015.79 1015.91 1015.92 1015.83 1015.69 1015.55 1015.45 1015.43 1015.49 1015.60 1015.73 1015.84 1015.89 1015.88 1015.83 1015.77 1015.73 1015.73 1015.77 1015.83 1015.87 1015.87 1015.79 1015.63 1015.41 1015.16 1014.92 1014.73 1014.62 1014.60 1014.63 1014.71 1014.79 1014.85 1014.89 1014.91 1014.91
1015.78 1015.54 1015.43 1015.47 1015.62 1015.81 1015.97 1016.06 1016.06 1015.96 1015.82 1015.67 1015.56 1015.52 1015.53 1015.59 1015.65 1015.69 1015.70 1015.66 1015.61 1015.58 1015.59 1015.66 1015.77 1015.89 1015.98 1016.00 1015.92 1015.75 1015.50 1015.21 1014.95 1014.74 1014.63 1014.61 1014.66 1014.76 1014.87 1014.96 1015.02 1015.06 1015.08
1015.97 1015.77 1015.70 1015.75 1015.88 1016.03 1016.15 1016.20 1016.15 1016.03 1015.87 1015.71 1015.59 1015.52 1015.51 1015.52 1015.54 1015.54 1015.51 1015.46 1015.43 1015.43 1015.50 1015.62 1015.79 1015.97 1016.09 1016.13 1016.06 1015.87 1015.60 1015.29 1015.01 1014.80 1014.68 1014.67 1014.74 1014.86 1014.98 1015.09 1015.16 1015.21 1015.24
1016.22 1016.07 1016.02 1016.06 1016.15 1016.26 1016.31 1016.30 1016.20 1016.04 1015.86 1015.68 1015.55 1015.47 1015.44 1015.43 1015.42 1015.41 1015.37 1015.33 1015.31 1015.35 1015.46 1015.63 1015.84 1016.05 1016.19 1016.24 1016.16 1015.96 1015.68 1015.37 1015.08 1014.88 1014.78 1014.78 1014.86 1014.99 1015.12 1015.23 1015.31 1015.35 1015.38
1016.52 1016.39 1016.34 1016.36 1016.42 1016.45 1016.44 1016.36 1016.20 1016.00 1015.79 1015.60 1015.46 1015.39 1015.36 1015.35 1015.35 1015.33 1015.30 1015.27 1015.27 1015.33 1015.47 1015.66 1015.88 1016.10 1016.24 1016.27 1016.19 1015.98 1015.71 1015.40 1015.14 1014.96 1014.88 1014.91 1015.01 1015.15 1015.28 1015.38 1015.44 1015.47 1015.48
1016.82 1016.70 1016.64 1016.63 1016.64 1016.61 1016.53 1016.38 1016.18 1015.94 1015.70 1015.51 1015.38 1015.31 1015.29 1015.30 1015.30 1015.30 1015.28 1015.26 1015.27 1015.34 1015.47 1015.65 1015.86 1016.05 1016.17 1016.19 1016.09 1015.89 1015.63 1015.36 1015.13 1014.99 1014.96 1015.02 1015.15 1015.30 1015.42 1015.51 1015.55 1015.55 1015.55
1017.11 1016.98 1016.90 1016.86 1016.82 1016.74 1016.60 1016.39 1016.15 1015.88 1015.63 1015.44 1015.32 1015.26 1015.26 1015.27 1015.29 1015.29 1015.27 1015.25 1015.25 1015.30 1015.41 1015.56 1015.73 1015.88 1015.96 1015.96 1015.85 1015.66 1015.43 1015.21 1015.04 1014.96 1014.98 1015.10 1015.25 1015.42 1015.55 1015.63 1015.64 1015.62 1015.58
1017.34 1017.20 1017.11 1017.04 1016.96 1016.83 1016.65 1016.41 1016.13 1015.85 1015.60 1015.41 1015.29 1015.24 1015.23 1015.25 1015.26 1015.24 1015.21 1015.17 1015.15 1015.17 1015.23 1015.33 1015.45 1015.55 1015.60 1015.57 1015.46 1015.30 1015.11 1014.95 1014.85 1014.84 1014.94 1015.10 1015.30 1015.50 1015.64 1015.71 1015.72 1015.67 1015.62
1017.52 1017.37 1017.26 1017.17 1017.06 1016.91 1016.70 1016.43 1016.14 1015.85 1015.60 1015.40 1015.28 1015.22 1015.20 1015.20 1015.18 1015.14 1015.07 1014.99 1014.93 1014.90 1014.91 1014.96 1015.02 1015.08 1015.10 1015.06 1014.97 1014.83 1014.70 1014.60 1014.58 1014.65 1014.81 1015.03 1015.28 1015.51 1015.68 1015.77 1015.78 1015.74 1015.67
1017.64 1017.49 1017.37 1017.27 1017.14 1016.96 1016.74 1016.47 1016.17 1015.87 1015.61 1015.41 1015.27 1015.18 1015.13 1015.09 1015.03 1014.94 1014.83 1014.71 1014.59 1014.51 1014.47 1014.48 1014.50 1014.53 1014.53 1014.50 1014.43 1014.34 1014.26 1014.22 1014.27 1014.40 1014.61 1014.89 1015.18 1015.45 1015.66 1015.78 1015.83 1015.80 1015.76
1017.71 1017.57 1017.45 1017.33 1017.19 1017.01 1016.77 1016.49 1016.19 1015.89 1015.62 1015.40 1015.23 1015.11 1015.01 1014.91 1014.80 1014.66 1014.50 1014.33 1014.18 1014.05 1013.98 1013.95 1013.95 1013.96 1013.97 1013.96 1013.93 1013.88 1013.85 1013.87 1013.95 1014.13 1014.38 1014.68 1015.01 1015.31 1015.56 1015.74 1015.84 1015.87 1015.86
1017.75 1017.62 1017.50 1017.37 1017.22 1017.03 1016.78 1016.50 1016.19 1015.88 1015.60 1015.35 1015.15 1014.99 1014.84 1014.69 1014.52 1014.33 1014.13 1013.92 1013.73 1013.58 1013.49 1013.44 1013.45 1013.47 1013.51 1013.53 1013.53 1013.53 1013.54 1013.59 1013.69 1013.87 1014.12 1014.43 1014.76 1015.09 1015.39 1015.62 1015.79 1015.89 1015.96
1017.79 1017.66 1017.53 1017.39 1017.22 1017.02 1016.76 1016.47 1016.16 1015.84 1015.54 1015.27 1015.04 1014.83 1014.64 1014.44 1014.23 1014.01 1013.77 1013.54 1013.34 1013.18 1013.08 1013.04 1013.06 1013.11 1013.18 1013.24 1013.29 1013.33 1013.37 1013.42 1013.51 1013.66 1013.88 1014.15 1014.47 1014.80 1015.12 1015.41 1015.65 1015.85 1016.00
1017.82 1017.69 1017.55 1017.39 1017.21 1016.98 1016.72 1016.42 1016.10 1015.77 1015.46 1015.17 1014.91 1014.67 1014.45 1014.22 1013.99 1013.74 1013.49 1013.25 1013.04 1012.88 1012.79 1012.77 1012.81 1012.90 1013.01 1013.11 1013.21 1013.27 1013.32 1013.37 1013.43 1013.53 1013.68 1013.88 1014.14 1014.45 1014.77 1015.10 1015.41 1015.70 1015.95
1017.85 1017.71 1017.55 1017.37 1017.16 1016.92 1016.65 1016.35 1016.03 1015.71 1015.39 1015.09 1014.81 1014.55 1014.31 1014.06 1013.82 1013.56 1013.31 1013.07 1012.86 1012.71 1012.63 1012.62 1012.68 1012.80 1012.95 1013.10 1013.24 1013.34 1013.40 1013.42 1013.44 1013.47 1013.53 1013.64 1013.82 1014.07 1014.37 1014.71 1015.07 1015.44 1015.79
1017.87 1017.71 1017.52 1017.32 1017.09 1016.85 1016.58 1016.29 1015.98 1015.66 1015.35 1015.05 1014.76 1014.49 1014.24 1013.99 1013.74 1013.48 1013.23 1013.00 1012.79 1012.64 1012.56 1012.56 1012.63 1012.77 1012.96 1013.15 1013.32 1013.45 1013.53 1013.54 1013.52 1013.48 1013.45 1013.46 1013.54 1013.70 1013.95 1014.27 1014.66 1015.08 1015.50
1017.86 1017.67 1017.46 1017.24 1017.01 1016.77 1016.52 1016.25 1015.97 1015.67 1015.37 1015.07 1014.79 1014.51 1014.25 1014.00 1013.74 1013.49 1013.24 1013.00 1012.79 1012.62 1012.53 1012.52 1012.59 1012.74 1012.95 1013.17 1013.39 1013.56 1013.66 1013.68 1013.64 1013.54 1013.44 1013.35 1013.33 1013.39 1013.56 1013.84 1014.21 1014.65 1015.12
1017.81 1017.58 1017.35 1017.13 1016.91 1016.70 1016.48 1016.25 1016.01 1015.74 1015.46 1015.17 1014.88 1014.60 1014.33 1014.07 1013.80 1013.54 1013.28 1013.03 1012.80 1012.61 1012.49 1012.44 1012.50 1012.64 1012.85 1013.11 1013.36 1013.59 1013.73 1013.79 1013.75 1013.64 1013.48 1013.32 1013.20 1013.17 1013.25 1013.45 1013.77 1014.19 1014.68
1017.70 1017.45 1017.21 1016.99 1016.81 1016.64 1016.47 1016.29 1016.10 1015.86 1015.60 1015.32 1015.02 1014.73 1014.44 1014.16 1013.88 1013.60 1013.32 1013.04 1012.78 1012.55 1012.38 1012.30 1012.31 1012.43 1012.64 1012.91 1013.21 1013.49 1013.70 1013.81 1013.82 1013.72 1013.55 1013.35 1013.17 1013.05 1013.03 1013.14 1013.39 1013.76 1014.22
1017.53 1017.27 1017.04 1016.84 1016.70 1016.58 1016.48 1016.36 1016.21 1016.01 1015.77 1015.48 1015.18 1014.86 1014.54 1014.23 1013.93 1013.63 1013.32 1013.01 1012.70 1012.42 1012.20 1012.06 1012.02 1012.10 1012.29 1012.58 1012.91 1013.24 1013.52 1013.71 1013.79 1013.75 1013.61 1013.41 1013.19 1013.01 1012.91 1012.93 1013.10 1013.39 1013.80
1017.34 1017.08 1016.86 1016.70 1016.60 1016.54 1016.50 1016.44 1016.33 1016.16 1015.92 1015.63 1015.30 1014.95 1014.60 1014.26 1013.93 1013.60 1013.26 1012.92 1012.57 1012.24 1011.96 1011.75 1011.65 1011.67 1011.83 1012.10 1012.45 1012.82 1013.18 1013.46 1013.63 1013.67 1013.59 1013.43 1013.22 1013.02 1012.87 1012.82 1012.89 1013.10 1013.43
1017.16 1016.91 1016.71 1016.58 1016.53 1016.52 1016.52 1016.50 1016.42 1016.26 1016.02 1015.72 1015.36 1014.98 1014.60 1014.23 1013.87 1013.51 1013.15 1012.78 1012.40 1012.02 1011.68 1011.40 1011.23 1011.19 1011.29 1011.53 1011.86 1012.27 1012.67 1013.03 1013.30 1013.44 1013.46 1013.37 1013.22 1013.03 1012.87 1012.77 1012.77 1012.90 1013.15
1017.02 1016.78 1016.61 1016.51 1016.49 1016.51 1016.54 1016.54 1016.47 1016.31 1016.06 1015.73 1015.35 1014.94 1014.53 1014.14 1013.76 1013.39 1013.01 1012.62 1012.21 1011.80 1011.40 1011.06 1010.81 1010.69 1010.72 1010.89 1011.20 1011.59 1012.02 1012.44 1012.79 1013.04 1013.17 1013.19 1013.12 1012.99 1012.85 1012.75 1012.71 1012.77 1012.94
Thickness
5785 5784 5777 5775 5774 5773 5773 5772 5772 5772 5772 5771 5771 5771 5770 5770 5770 5770 5770 5770 5770 5770 5770 5770 5771 5771 5771 5771 5771 5771 5772 5772 5773 5773 5773 5773 5772 5772 5771 5771 5771 5772 5769
5786 5783 5775 5774 5773 5772 5771 5770 5770 5770 5770 5770 5769 5769 5768 5768 5768 5768 5768 5768 5768 5767 5768 5768 5768 5768 5768 5768 5769 5769 5770 5770 5770 5770 5771 5771 5770 5770 5769 5768 5769 5770 5768
5784 5780 5775 5772 5771 5770 5769 5769 5768 5768 5768 5767 5767 5767 5766 5766 5766 5765 5765 5765 5765 5765 5765 5765 5766 5766 5766 5766 5767 5767 5767 5768 5768 5769 5770 5773 5771 5768 5767 5766 5766 5766 5765
5780 5778 5775 5770 5769 5768 5767 5767 5766 5766 5766 5766 5765 5765 5765 5764 5764 5764 5763 5763 5763 5763 5763 5764 5764 5764 5764 5764 5765 5765 5766 5766 5766 5768 5772 5773 5772 5766 5765 5764 5764 5764 5763
5775 5773 5770 5766 5765 5765 5764 5764 5764 5764 5764 5764 5764 5763 5763 5763 5762 5762 5762 5762 5762 5762 5762 5762 5762 5762 5762 5763 5763 5764 5764 5765 5765 5768 5770 5770 5769 5765 5763 5763 5762 5762 5762
5770 5768 5765 5762 5761 5761 5760 5760 5760 5760 5761 5761 5761 5761 5761 5761 5761 5761 5761 5760 5760 5760 5760 5760 5760 5761 5761 5761 5761 5762 5763 5764 5765 5768 5768 5768 5768 5763 5762 5761 5761 5761 5760
5764 5761 5759 5756 5756 5756 5756 5756 5756 5757 5758 5758 5758 5758 5758 5758 5759 5759 5759 5759 5759 5759 5759 5759 5759 5759 5759 5759 5760 5761 5761 5763 5767 5767 5767 5767 5765 5762 5761 5760 5760 5759 5759
5757 5755 5753 5751 5751 5751 5751 5751 5752 5752 5753 5754 5754 5755 5755 5756 5756 5757 5757 5757 5757 5758 5757 5758 5757 5757 5758 5758 5758 5759 5760 5761 5766 5768 5766 5766 5762 5760 5760 5759 5759 5759 5758
5751 5749 5748 5747 5747 5746 5746 5746 5747 5747 5748 5749 5750 5751 5752 5752 5753 5754 5755 5755 5756 5756 5756 5756 5756 5756 5756 5756 5757 5758 5759 5760 5764 5767 5767 5765 5761 5759 5759 5758 5758 5758 5758
5746 5744 5743 5742 5741 5741 5742 5741 5741 5742 5743 5744 5746 5747 5748 5749 5750 5751 5753 5754 5754 5754 5754 5755 5755 5755 5755 5755 5756 5756 5757 5759 5764 5766 5766 5764 5759 5758 5758 5757 5757 5757 5757
5739 5739 5738 5737 5735 5735 5736 5736 5736 5737 5738 5739 5741 5742 5744 5747 5749 5751 5752 5752 5751 5752 5752 5753 5753 5753 5754 5755 5755 5755 5756 5762 5765 5765 5765 5761 5758 5758 5757 5756 5756 5756 5755
5730 5731 5731 5730 5729 5730 5730 5731 5731 5732 5733 5734 5736 5739 5741 5743 5745 5748 5749 5748 5749 5749 5750 5751 5751 5752 5753 5758 5758 5756 5761 5763 5764 5765 5764 5759 5757 5757 5757 5756 5755 5754 5754
5724 5723 5724 5723 5724 5724 5725 5725 5726 5727 5728 5730 5732 5734 5736 5738 5741 5743 5745 5747 5747 5748 5750 5752 5752 5754 5756 5759 5761 5762 5764 5765 5765 5765 5763 5758 5757 5756 5756 5755 5754 5754 5753
5717 5716 5716 5716 5717 5718 5719 5719 5721 5722 5724 5725 5726 5729 5731 5734 5736 5739 5741 5743 5744 5745 5747 5750 5750 5753 5755 5758 5760 5763 5764 5763 5764 5764 5762 5758 5756 5755 5755 5755 5754 5753 5752
5711 5710 5710 5710 5711 5711 5711 5712 5714 5716 5718 5720 5720 5722 5725 5728 5731 5733 5736 5738 5739 5741 5743 5745 5748 5751 5753 5756 5758 5760 5762 5762 5762 5762 5762 5757 5755 5754 5754 5754 5753 5752 5752
5705 5704 5703 5703 5703 5703 5704 5705 5706 5708 5709 5712 5713 5715 5718 5721 5724 5727 5730 5732 5735 5736 5738 5741 5744 5747 5749 5751 5753 5756 5758 5761 5761 5760 5761 5758 5755 5754 5753 5753 5752 5752 5751
5700 5699 5697 5696 5695 5695 5696 5696 5698 5699 5702 5704 5706 5709 5712 5714 5717 5721 5724 5727 5730 5732 5734 5736 5740 5742 5744 5746 5748 5751 5754 5756 5758 5759 5759 5759 5757 5754 5753 5752 5751 5751 5750
5694 5693 5691 5690 5688 5688 5688 5688 5690 5692 5694 5696 5699 5702 5704 5707 5710 5714 5717 5721 5724 5727 5729 5731 5733 5735 5738 5741 5744 5747 5750 5752 5754 5757 5759 5758 5758 5758 5754 5751 5750 5749 5749
5690 5687 5686 5684 5682 5681 5681 5681 5683 5685 5686 5688 5691 5694 5696 5699 5702 5706 5710 5714 5718 5721 5724 5726 5730 5731 5731 5734 5737 5740 5745 5748 5750 5752 5756 5757 5757 5755 5756 5751 5749 5749 5748
5687 5684 5682 5679 5677 5676 5676 5676 5677 5678 5680 5682 5684 5685 5688 5691 5694 5698 5703 5707 5711 5714 5717 5720 5724 5725 5727 5728 5730 5734 5738 5742 5745 5748 5751 5753 5754 5755 5755 5754 5751 5749 5747
5683 5680 5677 5675 5673 5671 5669 5669 5669 5671 5673 5676 5677 5678 5680 5683 5686 5691 5695 5699 5702 5706 5710 5714 5717 5718 5720 5723 5722 5723 5729 5735 5740 5742 5744 5747 5749 5750 5750 5751 5751 5750 5748
5679 5676 5674 5672 5669 5667 5664 5663 5663 5664 5666 5669 5670 5671 5673 5676 5678 5683 5687 5691 5694 5698 5701 5706 5709 5711 5714 5717 5716 5714 5714 5720 5727 5736 5739 5740 5744 5746 5747 5749 5749 5748 5748
5677 5674 5670 5668 5666 5663 5661 5660 5660 5661 5662 5663 5664 5665 5667 5669 5672 5674 5679 5683 5686 5690 5694 5698 5702 5704 5706 5709 5712 5711 5709 5710 5717 5725 5731 5735 5737 5740 5742 5745 5747 5747 5747
5676 5673 5670 5667 5664 5661 5659 5657 5655 5653 5654 5656 5658 5660 5663 5665 5667 5669 5672 5675 5679 5683 5687 5691 5696 5699 5700 5702 5705 5708 5711 5711 5709 5712 5719 5727 5730 5732 5736 5739 5742 5744 5744
5677 5672 5669 5666 5663 5660 5658 5655 5653 5652 5652 5654 5655 5656 5659 5661 5663 5664 5667 5670 5673 5676 5680 5684 5688 5692 5695 5698 5700 5701 5703 5705 5709 5708 5708 5714 5720 5725 5729 5732 5735 5737 5738
5677 5672 5669 5665 5662 5659 5657 5655 5653 5650 5649 5650 5650 5651 5653 5656 5658 5661 5662 5665 5668 5671 5674 5677 5681 5685 5689 5693 5696 5698 5699 5700 5702 5704 5705 5706 5709 5715 5721 5725 5727 5729 5731